| time (UTC) | temp F | wind direction | speed MPH | gust MPH | rain 1hr in | rain 24hr in | rain mn in | humidity % | barometer mb |
| 20260502181118 | 72 | 25 | 1.0 | 3.0 | 0.00 | 0.00 | 0.00 | 59 | 1023.7 |
| 20260502170217 | 76 | 215 | 2.0 | 3.0 | 0.00 | 0.00 | 0.00 | 52 | 1023.8 |
| 20260502163819 | 75 | 243 | 2.0 | 6.0 | 0.00 | 0.00 | 0.00 | 51 | 1024.4 |
| 20260502162703 | 75 | 38 | 1.0 | 2.0 | 0.00 | 0.00 | 0.00 | 53 | 1024.4 |
| 20260502161803 | 75 | 337 | 2.0 | 3.0 | 0.00 | 0.00 | 0.00 | 54 | 1024.5 |
| 20260502160903 | 77 | 260 | 1.0 | 3.0 | 0.00 | 0.00 | 0.00 | 51 | 1024.8 |
| 20260502160221 | 75 | 231 | 2.0 | 6.0 | 0.00 | 0.00 | 0.00 | 52 | 1024.8 |
| 20260502151805 | 74 | 235 | 1.0 | 6.0 | 0.00 | 0.00 | 0.00 | 54 | 1025.4 |
| 20260502150903 | 74 | 224 | 2.0 | 4.0 | 0.00 | 0.00 | 0.00 | 54 | 1025.5 |
| 20260502123603 | 72 | 285 | 4.0 | 8.0 | 0.00 | 0.00 | 0.00 | 57 | 1027.0 |
| 20260502122917 | 73 | 250 | 4.0 | 7.0 | 0.00 | 0.00 | 0.00 | 56 | 1027.1 |
| 20260502121805 | 73 | 249 | 4.0 | 8.0 | 0.00 | 0.00 | 0.00 | 55 | 1027.1 |
| 20260502120903 | 73 | 226 | 4.0 | 9.0 | 0.00 | 0.00 | 0.00 | 54 | 1027.1 |
| 20260502120219 | 74 | 237 | 3.0 | 9.0 | 0.00 | 0.00 | 0.00 | 54 | 1027.0 |
| 20260502115619 | 73 | 275 | 3.0 | 7.0 | 0.00 | 0.00 | 0.00 | 54 | 1027.1 |
| 20260502113603 | 72 | 201 | 5.0 | 10.0 | 0.00 | 0.00 | 0.00 | 55 | 1027.6 |
| 20260502112705 | 73 | 222 | 4.0 | 10.0 | 0.00 | 0.00 | 0.00 | 53 | 1027.5 |
| 20260502111803 | 73 | 211 | 4.0 | 10.0 | 0.00 | 0.00 | 0.00 | 53 | 1027.6 |
| 20260502110905 | 73 | 215 | 5.0 | 10.0 | 0.00 | 0.00 | 0.00 | 54 | 1027.7 |
| 20260502110005 | 72 | 222 | 6.0 | 11.0 | 0.00 | 0.00 | 0.00 | 55 | 1027.8 |
| 20260502105403 | 72 | 243 | 4.0 | 8.0 | 0.00 | 0.00 | 0.00 | 54 | 1027.9 |
| 20260502104503 | 72 | 240 | 5.0 | 9.0 | 0.00 | 0.00 | 0.00 | 54 | 1027.9 |
| 20260502103605 | 71 | 196 | 6.0 | 14.0 | 0.00 | 0.00 | 0.00 | 55 | 1028.1 |
| 20260502102705 | 72 | 199 | 3.0 | 9.0 | 0.00 | 0.00 | 0.00 | 52 | 1028.0 |
| 20260502102019 | 71 | 197 | 4.0 | 9.0 | 0.00 | 0.00 | 0.00 | 54 | 1028.0 |
| 20260502101119 | 70 | 197 | 5.0 | 11.0 | 0.00 | 0.00 | 0.00 | 53 | 1028.1 |
| 20260502090903 | 66 | 196 | 5.0 | 8.0 | 0.00 | 0.00 | 0.00 | 50 | 1028.6 |
| 20260502090218 | 66 | 193 | 5.0 | 8.0 | 0.00 | 0.00 | 0.00 | 50 | 1028.5 |
| 20260502070903 | 59 | 208 | 4.0 | 8.0 | 0.00 | 0.00 | 0.00 | 55 | 1028.8 |
| 20260502070004 | 59 | 207 | 4.0 | 8.0 | 0.00 | 0.00 | 0.00 | 54 | 1028.7 |
| 20260502065403 | 59 | 189 | 5.0 | 9.0 | 0.00 | 0.00 | 0.00 | 54 | 1028.7 |
| 20260502064505 | 59 | 200 | 6.0 | 10.0 | 0.00 | 0.00 | 0.00 | 53 | 1028.7 |
| 20260502063605 | 60 | 195 | 6.0 | 11.0 | 0.00 | 0.00 | 0.00 | 52 | 1028.4 |
| 20260502062703 | 60 | 200 | 5.0 | 10.0 | 0.00 | 0.00 | 0.00 | 50 | 1028.4 |
| 20260502062018 | 60 | 198 | 6.0 | 13.0 | 0.00 | 0.00 | 0.00 | 48 | 1028.4 |
| 20260502060905 | 60 | 197 | 8.0 | 15.0 | 0.00 | 0.00 | 0.00 | 48 | 1028.8 |
| 20260502060003 | 60 | 196 | 5.0 | 10.0 | 0.00 | 0.00 | 0.00 | 48 | 1028.7 |
| 20260502055616 | 60 | 186 | 6.0 | 13.0 | 0.00 | 0.00 | 0.00 | 48 | 1028.6 |
| 20260502054503 | 60 | 184 | 5.0 | 9.0 | 0.00 | 0.00 | 0.00 | 48 | 1028.4 |
| 20260502053605 | 60 | 200 | 5.0 | 9.0 | 0.00 | 0.00 | 0.00 | 48 | 1028.4 |
| 20260502052703 | 60 | 166 | 5.0 | 8.0 | 0.00 | 0.00 | 0.00 | 47 | 1028.2 |
| 20260502051805 | 59 | 177 | 4.0 | 7.0 | 0.00 | 0.00 | 0.00 | 48 | 1028.2 |
| 20260502051121 | 59 | 186 | 4.0 | 9.0 | 0.00 | 0.00 | 0.00 | 48 | 1028.2 |
| 20260502050005 | 58 | 179 | 3.0 | 6.0 | 0.00 | 0.00 | 0.00 | 49 | 1028.4 |
| 20260502045620 | 57 | 189 | 3.0 | 4.0 | 0.00 | 0.00 | 0.00 | 50 | 1028.5 |
| 20260502044719 | 56 | 195 | 2.0 | 4.0 | 0.00 | 0.00 | 0.00 | 51 | 1028.3 |
| 20260502043605 | 56 | 175 | 2.0 | 4.0 | 0.00 | 0.00 | 0.00 | 52 | 1028.6 |
| 20260502042705 | 56 | 178 | 3.0 | 4.0 | 0.00 | 0.00 | 0.00 | 52 | 1028.4 |
| 20260502041805 | 55 | 179 | 2.0 | 3.0 | 0.00 | 0.00 | 0.00 | 53 | 1028.6 |
| 20260502040903 | 55 | 187 | 3.0 | 4.0 | 0.00 | 0.00 | 0.00 | 53 | 1028.7 |
| 20260502040005 | 55 | 207 | 3.0 | 6.0 | 0.00 | 0.00 | 0.00 | 53 | 1028.8 |
| 20260502035620 | 55 | 193 | 3.0 | 6.0 | 0.00 | 0.00 | 0.00 | 53 | 1028.8 |
| 20260502034503 | 56 | 187 | 2.0 | 3.0 | 0.00 | 0.00 | 0.00 | 52 | 1028.8 |
| 20260502033603 | 56 | 196 | 2.0 | 3.0 | 0.00 | 0.00 | 0.00 | 51 | 1028.8 |
| 20260502032703 | 57 | 203 | 2.0 | 3.0 | 0.00 | 0.00 | 0.00 | 51 | 1028.8 |
| 20260502031803 | 57 | 195 | 2.0 | 3.0 | 0.00 | 0.00 | 0.00 | 50 | 1028.9 |
| 20260502030905 | 57 | 180 | 2.0 | 3.0 | 0.00 | 0.00 | 0.00 | 50 | 1029.0 |
| 20260502030003 | 57 | 177 | 3.0 | 4.0 | 0.00 | 0.00 | 0.00 | 50 | 1029.2 |
| 20260502025619 | 57 | 179 | 3.0 | 4.0 | 0.00 | 0.00 | 0.00 | 50 | 1029.0 |
| 20260502024718 | 58 | 184 | 3.0 | 4.0 | 0.00 | 0.00 | 0.00 | 49 | 1029.2 |
| 20260502023605 | 58 | 190 | 3.0 | 4.0 | 0.00 | 0.00 | 0.00 | 49 | 1029.4 |
| 20260502022917 | 58 | 180 | 3.0 | 6.0 | 0.00 | 0.00 | 0.00 | 48 | 1029.4 |
| 20260502021803 | 59 | 174 | 3.0 | 4.0 | 0.00 | 0.00 | 0.00 | 47 | 1029.3 |
| 20260502020905 | 59 | 181 | 2.0 | 3.0 | 0.00 | 0.00 | 0.00 | 46 | 1029.2 |
| 20260502020006 | 59 | 192 | 2.0 | 3.0 | 0.00 | 0.00 | 0.00 | 46 | 1029.3 |
| 20260502015403 | 60 | 190 | 3.0 | 6.0 | 0.00 | 0.00 | 0.00 | 46 | 1029.5 |
| 20260502014503 | 60 | 181 | 3.0 | 6.0 | 0.00 | 0.00 | 0.00 | 45 | 1029.5 |
| 20260502013603 | 60 | 184 | 3.0 | 6.0 | 0.00 | 0.00 | 0.00 | 45 | 1029.4 |
| 20260502012703 | 60 | 188 | 4.0 | 6.0 | 0.00 | 0.00 | 0.00 | 45 | 1029.4 |
| 20260502011805 | 61 | 182 | 4.0 | 8.0 | 0.00 | 0.00 | 0.00 | 45 | 1029.7 |
| 20260502011119 | 61 | 179 | 4.0 | 7.0 | 0.00 | 0.00 | 0.00 | 44 | 1029.5 |
| 20260502010005 | 61 | 189 | 3.0 | 6.0 | 0.00 | 0.00 | 0.00 | 45 | 1029.8 |
| 20260502005405 | 61 | 181 | 3.0 | 8.0 | 0.00 | 0.00 | 0.00 | 44 | 1029.9 |
| 20260502004505 | 61 | 189 | 4.0 | 7.0 | 0.00 | 0.00 | 0.00 | 44 | 1029.9 |
| 20260502003821 | 62 | 200 | 4.0 | 8.0 | 0.00 | 0.00 | 0.00 | 43 | 1030.2 |
| 20260502002916 | 62 | 202 | 5.0 | 8.0 | 0.00 | 0.00 | 0.00 | 43 | 1030.2 |
| 20260502001805 | 62 | 186 | 5.0 | 8.0 | 0.00 | 0.00 | 0.00 | 43 | 1030.3 |
| 20260502000903 | 62 | 193 | 4.0 | 9.0 | 0.00 | 0.00 | 0.00 | 43 | 1030.4 |
| 20260502000005 | 62 | 195 | 5.0 | 8.0 | 0.00 | 0.00 | 0.00 | 43 | 1030.4 |
| 20260501235403 | 62 | 183 | 5.0 | 8.0 | 0.00 | 0.00 | 0.00 | 43 | 1030.4 |
| 20260501234717 | 63 | 189 | 5.0 | 8.0 | 0.00 | 0.00 | 0.00 | 43 | 1030.5 |
| 20260501233603 | 63 | 199 | 6.0 | 10.0 | 0.00 | 0.00 | 0.00 | 42 | 1030.6 |
| 20260501232703 | 64 | 184 | 6.0 | 9.0 | 0.00 | 0.00 | 0.00 | 42 | 1030.5 |
| 20260501231803 | 64 | 173 | 6.0 | 13.0 | 0.00 | 0.00 | 0.00 | 41 | 1030.6 |
| 20260501231119 | 64 | 189 | 6.0 | 9.0 | 0.00 | 0.00 | 0.00 | 41 | 1030.7 |
| 20260501230218 | 64 | 181 | 6.0 | 9.0 | 0.00 | 0.00 | 0.00 | 40 | 1030.6 |
| 20260501225618 | 65 | 203 | 6.0 | 9.0 | 0.00 | 0.00 | 0.00 | 40 | 1030.7 |
| 20260501224503 | 64 | 182 | 4.0 | 8.0 | 0.00 | 0.00 | 0.00 | 40 | 1030.7 |
| 20260501223816 | 64 | 165 | 5.0 | 9.0 | 0.00 | 0.00 | 0.00 | 41 | 1030.7 |
| 20260501222703 | 64 | 176 | 4.0 | 6.0 | 0.00 | 0.00 | 0.00 | 41 | 1030.7 |
| 20260501221803 | 64 | 166 | 4.0 | 8.0 | 0.00 | 0.00 | 0.00 | 42 | 1030.7 |
| 20260501220903 | 64 | 167 | 4.0 | 8.0 | 0.00 | 0.00 | 0.00 | 41 | 1030.7 |
| 20260501220004 | 65 | 166 | 5.0 | 8.0 | 0.00 | 0.00 | 0.00 | 41 | 1030.8 |
| 20260501215403 | 65 | 169 | 4.0 | 8.0 | 0.00 | 0.00 | 0.00 | 40 | 1030.8 |
| 20260501214503 | 65 | 164 | 4.0 | 10.0 | 0.00 | 0.00 | 0.00 | 40 | 1030.7 |
| 20260501213603 | 66 | 175 | 4.0 | 8.0 | 0.00 | 0.00 | 0.00 | 39 | 1030.7 |
| 20260501212703 | 66 | 157 | 4.0 | 7.0 | 0.00 | 0.00 | 0.00 | 39 | 1030.8 |
| 20260501211803 | 66 | 166 | 4.0 | 10.0 | 0.00 | 0.00 | 0.00 | 39 | 1030.8 |
| 20260501210903 | 66 | 145 | 3.0 | 8.0 | 0.00 | 0.00 | 0.00 | 39 | 1030.8 |
| 20260501210003 | 66 | 159 | 4.0 | 7.0 | 0.00 | 0.00 | 0.00 | 39 | 1030.8 |
| 20260501205403 | 66 | 169 | 3.0 | 7.0 | 0.00 | 0.00 | 0.00 | 38 | 1031.0 |
| 20260501204716 | 66 | 159 | 3.0 | 7.0 | 0.00 | 0.00 | 0.00 | 38 | 1031.2 |
| 20260501203816 | 66 | 137 | 3.0 | 7.0 | 0.00 | 0.00 | 0.00 | 38 | 1031.1 |
| 20260501202703 | 67 | 147 | 2.0 | 7.0 | 0.00 | 0.00 | 0.00 | 38 | 1031.0 |
| 20260501202018 | 67 | 160 | 2.0 | 4.0 | 0.00 | 0.00 | 0.00 | 38 | 1031.2 |
| 20260501200903 | 67 | 121 | 3.0 | 7.0 | 0.00 | 0.00 | 0.00 | 39 | 1031.2 |
| 20260501200003 | 66 | 146 | 1.0 | 4.0 | 0.00 | 0.00 | 0.00 | 39 | 1031.2 |
| 20260501195403 | 66 | 112 | 1.0 | 2.0 | 0.00 | 0.00 | 0.00 | 39 | 1031.3 |
| 20260501194503 | 67 | 137 | 1.0 | 4.0 | 0.00 | 0.00 | 0.00 | 39 | 1031.2 |
| 20260501193603 | 67 | 141 | 1.0 | 4.0 | 0.00 | 0.00 | 0.00 | 38 | 1031.0 |
| 20260501192703 | 67 | 125 | 1.0 | 2.0 | 0.00 | 0.00 | 0.00 | 38 | 1030.9 |
| 20260501191803 | 68 | 124 | 1.0 | 6.0 | 0.00 | 0.00 | 0.00 | 37 | 1031.0 |
| 20260501190903 | 69 | 129 | 1.0 | 3.0 | 0.00 | 0.00 | 0.00 | 37 | 1031.3 |
| 20260501190003 | 69 | 144 | 1.0 | 3.0 | 0.00 | 0.00 | 0.00 | 37 | 1031.0 |
| 20260501185403 | 69 | 145 | 2.0 | 6.0 | 0.00 | 0.00 | 0.00 | 36 | 1031.1 |
| 20260501184504 | 70 | 121 | 3.0 | 8.0 | 0.00 | 0.00 | 0.00 | 35 | 1031.1 |
| 20260501183603 | 71 | 114 | 3.0 | 6.0 | 0.00 | 0.00 | 0.00 | 34 | 1031.3 |
| 20260501182703 | 72 | 108 | 2.0 | 4.0 | 0.00 | 0.00 | 0.00 | 34 | 1031.1 |
| 20260501181803 | 72 | 134 | 2.0 | 6.0 | 0.00 | 0.00 | 0.00 | 33 | 1031.2 |